Find Starlink 34042

NORAD ID: 63838 Int'l Des: 2025-093 Owner: SPXS Country: US Constellation: starlink operational
LEOCIRCULAR

現在のビュー

3D地球を読み込み中...

About Starlink 34042

Starlink 34042 (NORAD 63838) is a starlink constellation satellite (v2 mini) launched May 7, 2025 by SPXS of US. It operates in LEO, CIRCULAR orbit with a mass of 575.00 kg.

次回通過

Passes for default location (London). Set your location on the main map for personalized predictions.

高度履歴

Loading altitude history...

軌道要素

1 63838U 25093C 26263.13005664 .00016254 00000-0 59865-3 0 9995
2 63838 43.0018 55.9672 0002901 265.6379 94.4141 15.27590626 77752
Epoch: Sep 20, 2026 • Age: 17 hours

現在のステータス

高度 482.9 km
遠地点 / 近地点 N/A
速度 7.63 km/s
衛星直下点 16.96°N, 123.72°E
打ち上げ日 May 7, 2025
運用期間 1.3 years
タイプ internet

技術仕様

分類 Payload
質量 575.00 kg
乾燥質量 530.00 kg
長さ 0.30 m
スパン 29.00 m
形状 ? Box + pan
製造者 SPXS
バスタイプ Starlink V2MO
フェーズステータス In Orbit
所有者/国 SPXS/US

Most Searched